Simultaneous Nadir Overpasses (SNOs) Predictions

Prediction of SNOs between AURA and NPP Satellite Orbit:

Table of predicted SNOs for the next 14.0 days since TLE Epoch: 3/18/2023
Index Date (AURA) Time (AURA) Lat,Lon (AURA) SZA (AURA ) Date (NPP) Time (NPP) Lat,Lon (NPP) SZA (NPP ) Distance(km) Time Diff (sec)
1 03/20/2023 02:02:23 79.42, 46.44 93.03 03/20/2023 02:02:08 79.43, 46.51 93.03 1.60 15
2 03/20/2023 02:51:45 -79.61,-144.61 87.26 03/20/2023 02:52:48 -79.60,-144.71 87.29 2.05 63
3 03/22/2023 17:29:06 -79.27, -6.25 87.82 03/22/2023 17:28:27 -79.26, -6.32 87.77 1.57 39
4 03/22/2023 18:18:24 79.55, 163.30 91.77 03/22/2023 18:19:03 79.55, 163.28 91.74 0.48 39
5 03/25/2023 08:55:42 79.25, -57.98 91.15 03/25/2023 08:54:40 79.26, -57.87 91.17 2.55 62
6 03/25/2023 09:45:04 -79.45, 110.96 89.15 03/25/2023 09:45:20 -79.45, 110.90 89.15 1.34 16
7 03/28/2023 01:11:38 79.41, 59.06 89.85 03/28/2023 01:11:33 79.41, 59.02 89.86 0.91 5
8 03/28/2023 02:00:58 -79.68,-131.41 90.56 03/28/2023 02:02:10 -79.68,-131.33 90.63 1.71 72
9 03/30/2023 16:38:12 -79.42, 7.51 91.22 03/30/2023 16:37:46 -79.43, 7.65 91.23 2.95 26



Historial Predications of SNOs between AURA and NPP
